Hourly Data Report for October 05, 2014

All times are specified in Local Standard Time (LST). Add 1 hour to adjust for Daylight Saving Time where and when it is observed.

OTTAWA INTL A
ONTARIO

45°19'00.000" N
75°40'00.000" W
114.90 m
6106001
71628
YOW

Download Data

Hourly Data (October 2014)
Hourly Data Report for October 5, 2014
Temp Definition
°C
Dew Point Temp Definition
°C
Rel Hum Definition
%
Wind Dir Definition
10's deg

Wind Spd Definition
km/h
Visibility Definition
km
Stn Press Definition
kPa
Hmdx Definition


Wind Chill Definition


Weather Definition


TIME
00:00 Legend Double Dagger 8.1 6.1 87 20 12 24.1 98.91     LegendNANA
01:00 Legend Double Dagger 7.3 5.6 89 20 9 24.1 98.92     Mostly Cloudy
02:00 Legend Double Dagger 6.5 4.8 89 20 7 24.1 98.91     LegendNANA
03:00 Legend Double Dagger 5.7 4.0 89 21 11 24.1 98.91     LegendNANA
04:00 Legend Double Dagger 4.8 3.5 91 22 14 24.1 98.96     Mainly Clear
05:00 Legend Double Dagger 4.5 3.2 91 22 16 24.1 99.01     LegendNANA
06:00 Legend Double Dagger 3.5 2.5 93 24 7 24.1 99.06     LegendNANA
07:00 Legend Double Dagger 5.0 3.7 91 21 7 24.1 99.11     Mainly Clear
08:00 Legend Double Dagger 7.2 4.7 84 20 14 24.1 99.18     LegendNANA
09:00 Legend Double Dagger 8.3 4.9 79 21 17 24.1 99.23     LegendNANA
10:00 Legend Double Dagger 8.7 5.1 78 21 12 24.1 99.24     Mostly Cloudy
11:00 Legend Double Dagger 10.1 4.7 69 21 13 24.1 99.23     LegendNANA
12:00 Legend Double Dagger 11.8 4.8 62 20 24 24.1 99.23     LegendNANA
13:00 Legend Double Dagger 11.3 5.7 68 19 15 24.1 99.22     Mostly Cloudy
14:00 Legend Double Dagger 12.3 5.5 63 20 21 24.1 99.23     LegendNANA
15:00 Legend Double Dagger 13.5 4.4 54 18 18 24.1 99.25     LegendNANA
16:00 Legend Double Dagger 12.0 4.8 61 20 17 24.1 99.30     Mostly Cloudy
17:00 Legend Double Dagger 10.7 5.9 72 20 12 24.1 99.36     LegendNANA
18:00 Legend Double Dagger 9.3 3.7 68 20 13 24.1 99.45     LegendNANA
19:00 Legend Double Dagger 9.4 4.6 72 20 9 24.1 99.52     Mostly Cloudy
20:00 Legend Double Dagger 9.3 5.1 75 19 12 24.1 99.58     LegendNANA
21:00 Legend Double Dagger 9.2 5.0 75 19 10 24.1 99.62     LegendNANA
22:00 Legend Double Dagger 9.0 5.2 77 19 10 24.1 99.65     Cloudy
23:00 Legend Double Dagger 8.7 6.0 83 17 12 24.1 99.70     LegendNANA

Notes on Data Quality.

Legend

  • E = Estimated
  • M = Missing
  • NA = Not Available
  • ‡ = Partner data that is not subject to review by the National Climate Archives
Date modified: